This is the latest recevied weather packets stored in our database for station/object N9OJR. If no packets are shown the sender has not sent any weather packets the latest 10 day(s).
| Time | Temp. | Humidity | Pressure | Rain* | Wind** | Luminosity | Snow |
|---|---|---|---|---|---|---|---|
| 1777654335 | 6.67° C | 98% | 1008.1 hPa | 1.27 mm | - | 74 W/m² | - |
| 1777654033 | 6.67° C | 98% | 1008.1 hPa | 3.05 mm | - | 81 W/m² | - |
| 1777653729 | 6.67° C | 98% | 1008 hPa | 3.05 mm | - | 67 W/m² | - |
| 1777653425 | 6.67° C | 98% | 1008.2 hPa | 1.78 mm | - | 85 W/m² | - |
| 1777653123 | 6.67° C | 98% | 1008.2 hPa | 0 mm | - | 39 W/m² | - |
| 1777652818 | 6.67° C | 97% | 1008.4 hPa | 0 mm | - | 55 W/m² | - |
| 1777652515 | 6.67° C | 97% | 1008 hPa | 0 mm | - | 62 W/m² | - |
| 1777652212 | 6.67° C | 97% | 1008.2 hPa | 0 mm | - | 56 W/m² | - |
| 1777651910 | 6.67° C | 97% | 1008.1 hPa | 0 mm | - | 65 W/m² | - |
| 1777651606 | 6.67° C | 97% | 1008.2 hPa | 0 mm | - | 72 W/m² | - |
| 1777651303 | 6.67° C | 97% | 1008.1 hPa | 1.78 mm | - | 72 W/m² | - |
| 1777651000 | 6.67° C | 97% | 1008.3 hPa | 1.78 mm | - | 51 W/m² | - |
| 1777650697 | 6.67° C | 97% | 1008.1 hPa | 0 mm | - | 83 W/m² | - |
| 1777650394 | 6.67° C | 98% | 1008.3 hPa | 1.27 mm | - | 108 W/m² | - |
| 1777650091 | 6.67° C | 97% | 1008.1 hPa | 1.27 mm | - | 89 W/m² | - |
| 1777649789 | 6.67° C | 97% | 1008.2 hPa | 3.05 mm | - | 100 W/m² | - |
| 1777649485 | 6.67° C | 97% | 1008.4 hPa | 3.05 mm | - | 84 W/m² | - |
| 1777649182 | 6.67° C | 98% | 1008.6 hPa | 3.05 mm | - | 75 W/m² | - |
| 1777648879 | 6.67° C | 98% | 1008.4 hPa | 1.27 mm | - | 58 W/m² | - |
| 1777648273 | 6.67° C | 97% | 1008.5 hPa | 3.05 mm | - | 70 W/m² | - |
| 1777647969 | 6.67° C | 97% | 1008.6 hPa | 1.78 mm | - | 49 W/m² | - |
| 1777647665 | 6.67° C | 97% | 1008.6 hPa | 0 mm | - | 46 W/m² | - |
| 1777647361 | 6.67° C | 97% | 1008.4 hPa | 0 mm | - | 57 W/m² | - |
| 1777647060 | 6.67° C | 96% | 1008.3 hPa | 1.27 mm | - | 73 W/m² | - |
| 1777646755 | 6.67° C | 96% | 1008.4 hPa | 1.27 mm | - | 66 W/m² | - |
* Rain latest hour (hover to see other rain measurements)
** Current wind speed in m/s (hover to see current wind gust speed)